Regional Weather Roundup
Issued by NWS

Home | Current Version | Previous Version | Text Only | Print | Product List | Glossary On
Versions: 1 2 3 4 5 6 7 8 9 10 11 12 13 14 15 16 17 18 19 20 21 22 23 24 25 26 27 28 29 30 31 32 33 34 35 36 37 38 39 40 41 42 43 44 45 46 47 48 49 50
725
ASUS46 KSEW 241710
RWRWA

WASHINGTON REGIONAL WEATHER ROUNDUP
NATIONAL WEATHER SERVICE SEATTLE WA
1000 AM PDT SUN JUL 24 2016

NOTE:"FAIR" INDICATES FEW OR NO CLOUDS BELOW 12,000 FEET WITH NO
SIGNIFICANT WEATHER AND/OR OBSTRUCTIONS TO VISIBILITY.

WAZ505-507>509-241800-
SEATTLE, TACOMA, EVERETT, AND VICINITY

CITY           SKY/WX    TMP DP  RH WIND       PRES   REMARKS
EVERETT        SUNNY     63  53  70 VRB6      30.14F
BOEING FIELD   SUNNY     67  54  63 NW7       30.13S
RENTON         SUNNY     66  55  67 NW10      30.12F
SEATAC AIRPORT SUNNY     67  56  67 NW7       30.14S
JBLM-MCCHORD   SUNNY     68  55  63 VRB5      30.13S
PUYALLUP       FAIR      68  57  68 CALM      30.13F
BREMERTON      SUNNY     66  55  68 CALM      30.16F
JBLM-FT LEWIS  SUNNY     67  55  64 NW8       30.12F
TACOMA NARROWS SUNNY     65  53  65 VRB3      30.13F
$$

WAZ001-503-506-510-514-515-241800-
NORTH INTERIOR

CITY           SKY/WX    TMP DP  RH WIND       PRES   REMARKS
BELLINGHAM     SUNNY     66  54  65 CALM      30.13F
FRIDAY HARBOR  SUNNY     63  53  70 E5        30.15S
EASTSOUND      SUNNY     59  54  82 N5        30.12F
PORT ANGELES   SUNNY     65  53  65 N5        30.15F
EDIZ HOOK      FAIR      58  52  81 NW7       30.15F
PORT TOWNSEND  FAIR      66  54  63 NW9       30.14F
NAS WHIDBEY    MOSUNNY   58  50  75 W9        30.18S
ARLINGTON      SUNNY     64  52  63 CALM      30.14F
BURLINGTON     SUNNY     64  57  77 S3        30.13F
$$

WAZ020-022-039-040-504-511-512-241800-
SOUTHWEST INTERIOR

CITY           SKY/WX    TMP DP  RH WIND       PRES   REMARKS
SHELTON        SUNNY     68  54  60 S5        30.11F
OLYMPIA        SUNNY     66  53  63 VRB6      30.13F
CHEHALIS       NOT AVBL
KELSO          HAZE      66  55  67 N8        30.11F VSB 3/4
VANCOUVER      MOSUNNY   66  55  67 W9        30.08F
SCAPPOOSE, OR  SUNNY     68  54  60 NE10      30.08F
PORTLAND, OR   MOSUNNY   67  55  65 VRB3      30.09F
$$

WAZ021-516-517-241800-
WASHINGTON COAST

CITY           SKY/WX    TMP DP  RH WIND       PRES   REMARKS
FORKS          CLOUDY    62  57  83 CALM      30.15F
HOQUIAM        SUNNY     61  58  90 S6        30.14F FOG
ASTORIA, OR    SUNNY     66  58  75 N7        30.11F
$$

WAZ019-023-024-040-518-519-241800-
CASCADE MOUNTAINS AND COLUMBIA GORGE

CITY           SKY/WX    TMP DP  RH WIND       PRES   REMARKS
STAMPEDE PASS  SUNNY     64  48  56 VRB3      30.18S
TROUTDALE, OR  SUNNY     65  57  75 VRB3      30.08F
THE DALLES, OR SUNNY     72  53  51 NW6       30.06F
$$

WAZ026-027-041>044-520-521-241800-
EAST SLOPES

CITY           SKY/WX    TMP DP  RH WIND       PRES   REMARKS
OMAK           SUNNY     74  47  38 N8        30.10F
WENATCHEE      SUNNY     70  50  49 SW6       30.10F
ELLENSBURG     SUNNY     70  51  51 CALM      30.12F
YAKIMA         SUNNY     75  47  36 W5        30.09F
$$

WAZ028-034-035-241800-
COLUMBIA BASIN

CITY           SKY/WX    TMP DP  RH WIND       PRES   REMARKS
EPHRATA        SUNNY     77  48  35 MISG      30.08F
MOSES LAKE     SUNNY     77  48  35 CALM      30.09F
PASCO          SUNNY     74  51  44 N5        30.07F
HERMISTON, OR  SUNNY     75  48  38 N5        30.07F
$$

WAZ036>038-241800-
NORTHEAST WASHINGTON

CITY           SKY/WX    TMP DP  RH WIND       PRES   REMARKS
SPOKANE GEIGER MOSUNNY   72  48  42 NE6       30.13F
SPOKANE FELTS  SUNNY     71  52  50 E5        30.13F
FAIRCHILD AFB  SUNNY     72  46  39 VRB3      30.13F
COEURDALENE,ID SUNNY     70  50  49 NE3       30.11F
DEER PARK      SUNNY     70  50  49 VRB3      30.14F
$$

WAZ029>033-241800-
SOUTHEAST WASHINGTON

CITY           SKY/WX    TMP DP  RH WIND       PRES   REMARKS
PULLMAN        SUNNY     75  45  34 E5        30.14F
LEWISTON, ID   SUNNY     73  46  38 CALM      30.09F
WALLA WALLA    SUNNY     74  45  35 VRB5      30.08F
PENDLETON, OR  SUNNY     74  43  32 VRB3      30.08F
$$




USA.gov is the U.S. government's official web portal to all federal, state and local government web resources and services.